DW5678 Kavala GR current weather conditions

sailwx.info

Wind from 023 at 0 knots gusting 4

Air temperature 16.7° C
Dewpoint 10.7° C

Last reported at 2016-May-05 15:45 UTC.
Time now 2016-May-05 16:09 UTC

Location: N 40°56' E 024°24'.
View on Google Maps.

See reports from other nearby stations

  
Tides and Currents Weather Stations Pressure Air Temp Water Temp Dewpoint Dewpoint Depression Visibility Wind Speed Wind Dir Waves Ship Positions
date/time (UTC)wind fromknots sea level pressurealtimeterstation pressurevisibilityair tempwater tempwave heightnotes
2016-May-05 15:45 023 0 gusting 4 16.7
2016-May-05 15:15 123 0 gusting 2 17.8
2016-May-05 15:00 059 0 gusting 4 17.2
2016-May-05 14:45 148 0 gusting 5 17.2
2016-May-05 14:30 190 0 gusting 4 17.2
2016-May-05 14:15 136 0 gusting 5 17.2
2016-May-05 14:00 117 1 gusting 5 17.8
2016-May-05 13:45 081 0 gusting 5 17.8
2016-May-05 13:30 075 1 gusting 5 17.8
2016-May-05 13:15 077 0 gusting 5 17.2
2016-May-05 13:00 028 1 gusting 6 17.2
2016-May-05 12:45 046 0 gusting 6 17.2
2016-May-05 12:00 010 2 gusting 12 18.9
2016-May-05 11:45 280 0 gusting 6 18.9
2016-May-05 11:15 159 1 gusting 8 18.9
2016-May-05 11:00 256 1 gusting 8 18.9
2016-May-05 10:45 212 2 gusting 7 18.9
2016-May-05 10:30 282 0 gusting 10 18.3
2016-May-05 10:15 189 1 gusting 6 17.8
2016-May-05 10:00 322 1 gusting 6 17.8
2016-May-05 09:30 290 0 gusting 6 17.2
2016-May-05 09:15 288 3 gusting 7 17.8
2016-May-05 09:00 353 3 gusting 8 17.2
2016-May-05 08:30 337 3 gusting 6 16.1
2016-May-05 08:15 197 0 gusting 4 16.1
2016-May-05 08:00 307 0 gusting 6 15.6
2016-May-05 07:45 056 1 gusting 11 15.0
2016-May-05 07:00 14.4
2016-May-05 06:30 251 3 gusting 11 14.4
2016-May-05 06:00 341 4 gusting 10 13.3
2016-May-05 05:45 011 5 gusting 12 12.8
2016-May-05 05:30 274 2 gusting 10 12.8
2016-May-05 05:15 333 13.3
2016-May-05 05:00 170 13.3
2016-May-05 04:45 014 0 gusting 2 12.8
2016-May-05 04:15 019 12.8
2016-May-05 03:45 019 12.2
2016-May-05 03:30 019 12.2
2016-May-05 02:00 343 12.2
2016-May-05 01:30 039 0 gusting 4 12.2
2016-May-05 01:15 052 2 gusting 6 12.2
2016-May-05 01:00 008 1 gusting 6 12.2
2016-May-05 00:45 008 0 gusting 6 12.2
2016-May-05 00:30 167 0 gusting 2 12.2
2016-May-05 00:15 041 0 gusting 6 12.2
2016-May-05 00:00 327 0 gusting 6 12.8
2016-May-04 23:45 032 0 gusting 4 12.8
2016-May-04 23:30 330 0 gusting 1 12.8
2016-May-04 23:00 027 12.8
2016-May-04 22:45 027 12.8
2016-May-04 22:15 027 12.8
2016-May-04 22:00 027 12.8
2016-May-04 21:30 027 12.8
2016-May-04 20:30 027 13.3
2016-May-04 20:15 027 13.3
2016-May-04 19:00 030 13.9
2016-May-04 18:45 046 0 gusting 2 13.9
2016-May-04 18:00 184 14.4
2016-May-04 17:45 184 14.4
2016-May-04 17:30 148 0 gusting 4 14.4
2016-May-04 17:15 127 0 gusting 4 14.4
2016-May-04 16:45 242 15.0
2016-May-04 16:30 242 15.0
2016-May-04 16:00 242 15.0
2016-May-04 15:45 202 0 gusting 2 15.6
2016-May-04 15:15 128 1 gusting 2 15.6
2016-May-04 14:45 053 16.1
2016-May-04 14:30 240 16.1
2016-May-04 14:15 236 1 gusting 5 16.1
2016-May-04 14:00 067 0 gusting 2 16.1
2016-May-04 13:30 291 0 gusting 4 15.6
2016-May-04 13:15 061 15.6
2016-May-04 13:00 284 0 gusting 6 16.1
2016-May-04 12:45 213 16.7
2016-May-04 12:30 194 0 gusting 6 17.2
2016-May-04 12:15 168 0 gusting 6 17.2
2016-May-04 12:00 195 4 gusting 7 17.2
2016-May-04 11:15 216 4 gusting 10 18.3
2016-May-04 11:00 210 4 gusting 8 17.8
2016-May-04 10:45 216 5 gusting 8 17.8
2016-May-04 10:30 212 4 gusting 10 17.2
2016-May-04 10:15 227 4 gusting 8 17.2
2016-May-04 09:45 210 1 gusting 6 17.2
2016-May-04 09:30 213 0 gusting 6 18.3
2016-May-04 09:15 196 1 gusting 6 17.8
2016-May-04 09:00 201 2 gusting 6 16.7
2016-May-04 08:45 210 4 gusting 7 17.2
2016-May-04 08:30 271 1 gusting 6 17.2
2016-May-04 08:15 272 1 gusting 6 17.8
2016-May-04 08:00 169 1 gusting 6 16.7
2016-May-04 07:45 116 1 gusting 8 16.1
2016-May-04 07:30 253 1 gusting 6 16.7
2016-May-04 07:00 268 1 gusting 6 16.1
2016-May-04 05:45 356 3 gusting 7 14.4
2016-May-04 05:30 064 2 gusting 8 14.4
2016-May-04 05:15 345 1 gusting 10 13.9
2016-May-04 04:45 239 1 gusting 6 13.3
2016-May-04 04:30 331 1 gusting 8 12.8
2016-May-04 04:15 250 3 gusting 10 12.8
2016-May-04 04:00 024 3 gusting 7 12.8
2016-May-04 03:15 355 1 gusting 6 12.8
2016-May-04 02:30 338 1 gusting 6 12.8
2016-May-04 02:15 331 2 gusting 6 12.8
2016-May-04 02:00 286 0 gusting 6 12.8
2016-May-04 01:45 347 0 gusting 6 12.8
2016-May-04 01:30 306 1 gusting 6 12.8
2016-May-04 01:15 353 2 gusting 7 12.8
2016-May-04 01:00 357 0 gusting 6 12.2
2016-May-04 00:45 012 1 gusting 11 12.2
2016-May-04 00:15 12.2
2016-May-03 23:30 328 3 gusting 8 12.8
2016-May-03 23:00 12.8
2016-May-03 22:45 010 4 gusting 8 13.3
2016-May-03 22:30 306 4 gusting 12 13.3
2016-May-03 22:15 326 3 gusting 12 13.3
2016-May-03 22:00 010 6 gusting 13 13.9
2016-May-03 20:45 334 4 gusting 7 13.9
2016-May-03 20:30 021 3 gusting 6 13.9
2016-May-03 20:15 351 1 gusting 6 13.9
2016-May-03 20:00 346 1 gusting 5 13.9
2016-May-03 19:45 016 13.9
2016-May-03 19:30 327 13.9
2016-May-03 19:00 008 14.4
2016-May-03 18:45 029 1 gusting 6 14.4
2016-May-03 18:30 14.4
2016-May-03 18:00 331 1 gusting 6 14.4
2016-May-03 17:45 15.0
2016-May-03 17:30 325 2 gusting 6 15.0
2016-May-03 17:15 324 2 gusting 6 15.0
2016-May-03 16:45 004 2 gusting 7 15.6
2016-May-03 16:30 005 4 gusting 7 15.6
2016-May-03 16:15 305 0 gusting 6 16.1
2016-May-03 16:00 358 1 gusting 6 16.1